Theta_e
308 308 309 309 309 309 310 310 310 311 312 314 315 315 315 316 318 319 319 320 320 316 317 318 319 321 320 319 318 319 326 327 326 327 326 333 337 335 338 343 347 346 345 346 344
309 309 309 309 310 310 310 310 310 311 313 315 315 315 315 318 321 320 320 320 318 317 318 319 320 321 319 318 318 321 326 327 325 324 324 332 335 335 336 339 346 345 343 345 345
310 310 310 310 310 310 310 310 311 312 314 315 315 315 315 318 320 320 319 316 317 318 319 319 320 321 320 318 318 320 325 323 322 322 322 328 333 335 336 339 344 345 348 349 345
310 310 310 310 310 310 311 311 311 313 315 315 315 315 316 318 320 320 320 318 318 319 319 319 319 321 320 321 318 321 320 320 320 318 320 330 333 334 336 337 339 344 345 349 345
310 310 310 310 310 310 311 311 312 314 316 315 315 315 316 318 320 318 318 318 319 318 318 318 318 319 321 320 319 321 321 319 319 317 321 328 334 334 335 336 339 344 346 348 348
310 310 310 310 310 311 311 311 312 314 316 316 315 315 315 319 321 319 318 318 318 318 318 318 318 318 319 319 321 319 319 319 318 322 330 333 332 332 334 334 335 343 343 347 348
310 312 315 316 315 314 313 312 312 314 315 315 315 315 316 319 321 321 319 319 319 318 318 318 318 318 318 319 317 317 322 322 319 319 321 326 329 333 330 334 339 340 343 347 347
315 316 316 316 316 316 317 315 312 313 314 315 315 315 319 322 321 322 318 318 318 318 318 318 318 318 318 317 318 320 321 322 320 321 318 324 325 321 320 336 340 342 345 347 345
316 316 316 317 318 320 320 320 319 312 313 314 314 315 320 322 321 318 319 319 319 319 318 319 318 317 317 320 321 320 322 322 321 320 322 321 326 326 322 331 338 345 346 347 342
315 315 317 318 320 321 322 321 322 318 314 315 318 320 321 322 322 320 319 319 319 319 319 319 318 321 320 321 322 322 322 321 322 321 327 327 329 328 326 331 332 336 345 341 339
315 316 317 318 321 322 323 323 323 321 322 322 322 322 322 322 322 321 320 319 319 319 322 318 323 323 321 320 319 319 321 323 322 321 328 328 329 329 330 329 326 332 335 335 336
312 315 316 318 322 322 323 323 323 322 323 323 323 323 323 322 322 321 320 320 320 322 321 324 326 321 318 317 319 321 324 324 322 321 328 328 328 326 329 331 330 328 330 333 332
312 314 316 319 323 323 323 323 322 322 323 323 323 323 322 321 321 320 321 320 321 323 321 325 323 320 321 322 324 323 324 323 323 322 323 324 326 328 326 332 332 330 328 331 331
312 312 316 320 322 323 323 323 323 323 328 329 327 325 322 322 321 321 320 321 322 323 322 324 322 322 323 323 322 325 322 322 323 325 326 323 327 326 326 331 333 333 332 331 330
312 313 314 318 322 324 322 322 322 324 330 328 325 323 322 321 321 321 320 321 323 323 324 324 323 324 325 323 322 324 323 324 324 326 324 326 327 326 327 329 334 333 332 331 331
312 313 313 316 322 323 323 321 323 330 333 327 321 321 321 320 321 321 321 322 321 324 324 324 322 324 324 322 322 322 323 323 323 324 327 326 328 326 328 329 332 332 330 331 329
311 313 313 316 323 323 321 323 324 333 326 326 323 321 321 322 322 322 325 327 326 327 327 326 325 323 323 325 323 325 326 324 323 325 326 325 328 328 326 329 331 330 326 326 327
311 313 314 316 320 324 322 325 329 326 327 325 324 324 325 325 325 325 325 327 325 325 327 328 327 325 325 325 325 324 324 324 325 326 326 324 329 328 330 331 331 322 320 321 322
312 323 319 319 323 324 321 323 324 326 324 325 324 326 326 326 326 327 327 326 324 324 328 328 328 323 325 324 323 324 326 321 326 324 326 326 328 324 330 331 326 320 318 316 314
311 321 320 324 326 323 321 318 325 324 323 323 326 325 327 327 328 329 328 326 325 324 322 325 327 323 324 324 324 325 322 328 327 330 329 327 328 329 329 330 323 320 317 314 312
311 322 320 325 326 323 326 323 320 321 322 323 324 325 326 327 327 328 327 325 323 324 323 324 325 325 324 326 326 326 325 326 326 327 330 330 327 324 324 326 324 318 315 313 311
312 321 318 324 323 316 322 319 320 322 321 323 324 325 326 325 326 327 327 326 323 323 325 324 327 327 324 319 320 325 325 326 325 325 327 327 327 317 318 319 318 316 313 312 312
312 318 318 320 323 321 319 319 317 320 321 322 323 322 323 325 327 326 326 323 321 322 325 324 325 328 326 323 322 324 325 325 325 324 327 326 324 316 315 315 315 314 312 312 313
315 321 319 318 315 318 319 318 319 318 320 321 323 322 324 326 325 327 326 322 321 323 318 321 322 327 327 326 321 324 325 324 325 327 325 323 325 321 317 316 314 313 313 313 315
316 318 317 320 319 316 316 318 320 321 320 321 324 324 324 327 325 326 325 325 322 322 323 326 329 322 323 322 324 325 323 323 323 322 325 324 323 320 317 316 315 314 314 314 313
316 318 317 316 315 317 318 320 320 320 320 322 324 323 324 326 324 325 324 324 326 323 325 323 327 326 327 324 323 323 320 321 320 319 320 319 321 317 316 315 314 315 315 314 312
313 316 317 315 317 320 320 320 320 318 319 320 320 324 325 324 322 322 321 321 321 323 324 325 327 326 325 322 322 324 321 320 320 320 319 322 319 317 317 317 315 315 314 311 309
Wind_Speed
2 1 0 0 0 0 1 2 2 3 4 4 7 9 11 10 8 7 7 6 5 4 4 3 3 4 2 3 3 3 2 2 5 5 1 2 7 9 11 4 10 11 4 7 27
3 3 2 2 1 1 1 2 2 3 3 4 7 10 10 10 9 11 8 5 5 5 4 5 4 4 4 3 2 1 0 2 4 5 3 6 12 11 9 14 16 10 10 16 29
5 5 4 3 2 2 2 2 2 2 3 5 8 10 9 6 6 8 9 6 6 6 7 9 7 4 4 2 2 2 1 2 4 7 5 8 10 10 10 13 23 26 18 26 31
5 5 4 4 3 3 3 2 2 2 2 5 8 9 9 4 3 6 5 6 6 7 9 10 9 3 3 3 1 2 5 5 2 3 6 8 7 9 20 19 23 21 22 29 33
5 4 4 4 4 3 3 3 2 1 2 5 7 8 7 3 4 6 3 5 5 7 9 10 10 3 4 1 2 2 6 5 11 3 7 7 13 7 25 17 12 19 23 29 31
6 5 5 5 4 4 3 3 2 1 2 5 7 8 7 1 3 5 5 3 5 8 10 8 5 4 2 3 2 4 8 12 3 2 3 7 7 7 17 22 13 23 27 29 31
7 7 6 6 5 4 4 3 2 2 3 5 7 9 6 1 1 4 3 2 5 7 9 6 4 3 3 0 6 3 7 6 11 7 2 1 4 9 8 18 20 24 27 26 28
7 6 6 6 6 6 6 5 3 2 3 5 7 10 3 5 4 4 1 2 5 7 6 5 2 0 2 3 3 3 2 4 8 15 4 2 4 7 14 10 22 21 19 21 19
7 6 6 5 6 7 9 7 4 1 2 4 6 6 2 6 9 5 3 1 4 4 6 4 2 3 2 2 1 5 2 4 2 9 5 2 6 20 15 10 16 13 15 16 17
9 7 5 5 7 11 10 5 4 1 1 3 4 3 3 9 8 3 2 2 2 6 2 2 3 1 2 1 1 1 1 2 3 7 10 6 8 12 15 2 4 7 12 14 17
12 8 5 5 8 10 10 4 3 2 7 4 7 8 8 9 4 2 2 1 3 2 3 4 4 4 2 1 2 3 2 2 2 5 3 5 7 12 10 13 7 3 10 10 12
13 8 4 3 6 8 11 9 8 5 6 7 9 12 10 7 3 4 3 0 3 4 2 1 10 4 3 4 4 4 2 5 1 5 2 2 6 5 15 12 11 8 8 8 10
14 10 3 2 3 4 8 13 12 7 1 4 3 3 2 1 1 2 3 2 2 3 4 7 4 4 4 4 3 3 5 4 4 5 2 4 3 3 5 10 13 15 5 6 9
14 11 4 1 1 4 6 12 13 7 2 2 1 1 4 2 2 2 3 2 2 3 1 3 6 2 6 5 3 3 3 3 4 5 9 2 7 1 6 8 13 14 10 7 9
13 10 5 2 1 3 8 12 10 4 2 2 1 2 2 1 1 4 3 2 2 2 2 2 4 6 7 4 2 4 5 4 4 5 4 1 4 2 4 4 7 9 8 9 10
13 9 5 2 3 2 8 12 3 1 2 2 1 1 3 2 2 2 1 4 3 3 4 3 2 3 4 2 3 1 4 2 1 1 4 3 3 1 2 3 2 6 8 10 14
12 8 4 2 6 2 7 3 1 0 2 5 3 2 1 2 2 3 4 5 3 1 2 3 2 2 3 1 1 10 10 8 3 5 5 2 4 3 1 3 1 8 10 12 16
11 6 2 2 5 2 6 2 1 2 3 2 4 3 3 4 5 5 3 3 6 2 2 2 2 5 5 4 6 6 3 5 8 6 11 3 4 2 3 7 12 12 12 13 15
7 2 3 3 3 3 2 2 2 1 2 6 0 3 2 2 2 3 4 2 4 4 1 2 0 2 2 4 4 2 2 2 2 2 5 2 1 4 4 7 9 10 11 13 13
7 5 9 2 1 4 3 1 0 2 4 2 1 1 2 4 2 2 2 1 2 6 1 2 3 3 3 2 8 4 2 2 2 5 9 4 5 6 7 8 6 7 10 12 13
5 3 11 2 3 3 1 0 2 3 4 2 2 2 2 2 3 2 2 2 3 2 5 2 1 3 2 5 5 2 3 4 1 3 5 7 5 3 6 7 8 9 12 12 9
5 2 12 4 3 2 1 1 4 4 7 3 2 2 2 2 3 2 2 2 6 1 2 2 1 3 4 3 2 2 2 2 3 4 4 4 7 9 7 5 12 14 12 8 7
7 6 11 2 2 2 3 2 2 7 5 5 2 2 3 3 3 1 2 2 5 3 2 4 1 3 2 3 2 3 1 3 1 1 8 9 5 8 9 11 11 13 9 5 5
6 3 8 14 7 2 2 3 3 6 3 2 3 2 3 3 6 3 2 4 3 4 4 3 2 3 6 5 2 7 8 3 4 5 9 9 13 6 5 7 9 7 4 3 11
7 3 4 3 6 5 1 2 3 5 8 9 3 7 2 3 2 3 2 2 3 2 2 0 3 4 5 3 4 7 5 4 2 3 3 8 7 5 2 4 5 4 5 11 11
4 3 3 2 4 2 6 5 5 3 5 4 5 8 5 4 3 2 1 1 1 1 1 1 3 3 4 2 2 3 3 2 3 0 1 1 3 3 3 5 5 7 10 8 5
5 4 2 4 3 1 2 3 5 3 3 7 1 3 8 4 3 3 4 3 3 3 2 2 4 4 8 1 4 3 4 4 3 3 3 3 2 2 1 1 4 7 6 3 6
Wind_Direction
15 1 10 25 299 311 332 348 5 21 32 23 1 350 348 353 2 60 65 71 51 70 89 74 34 338 109 135 157 130 145 149 142 187 138 174 196 168 201 198 189 201 208 198 171
57 77 87 84 75 32 355 346 1 29 41 16 359 351 353 6 80 66 45 24 41 83 59 23 24 74 111 127 147 189 76 187 196 179 226 208 211 171 177 198 211 207 208 177 176
62 68 72 71 58 35 6 349 2 36 38 8 356 352 355 12 94 45 34 57 104 82 39 18 13 111 104 127 150 180 321 215 274 249 224 212 214 190 188 205 214 206 181 173 180
56 56 55 52 44 31 12 356 2 38 19 357 354 352 358 47 75 23 36 91 87 60 37 21 27 88 95 108 356 254 254 254 312 292 173 183 187 198 194 216 222 209 194 181 187
48 48 43 41 37 29 13 359 358 29 349 344 348 353 17 44 68 42 96 86 59 35 27 19 29 56 75 14 132 265 327 323 310 316 191 182 198 204 217 223 234 199 200 194 193
47 45 42 40 36 25 10 353 340 291 314 331 341 346 358 356 61 52 66 53 22 15 12 26 11 30 67 354 22 318 307 315 5 111 188 159 179 202 235 222 216 201 211 204 198
53 55 50 39 29 20 8 356 335 292 301 324 333 339 327 92 76 350 341 18 12 2 2 23 42 25 322 68 333 330 342 344 28 3 8 217 190 222 291 203 207 207 211 200 201
51 45 36 33 39 36 20 4 339 298 294 312 328 336 294 32 322 281 186 22 19 357 2 10 2 28 7 314 17 25 81 354 37 6 44 310 275 22 340 212 218 214 206 200 194
23 19 21 32 25 15 355 336 324 286 300 311 326 342 30 24 39 51 142 94 354 350 331 331 6 57 46 33 83 16 356 333 54 38 338 342 336 339 339 257 231 218 200 187 174
15 5 1 15 23 12 9 48 56 57 343 320 319 338 46 344 354 6 347 266 300 324 268 26 40 76 96 226 69 318 8 330 344 20 35 67 26 5 9 25 210 191 191 171 179
14 6 352 8 27 31 30 36 4 14 313 258 286 285 296 335 354 72 30 354 328 33 34 11 65 40 323 216 101 127 101 345 335 23 84 75 71 37 28 36 20 232 206 163 171
13 4 350 8 36 57 52 51 20 318 314 300 265 265 279 304 332 54 109 184 39 34 3 151 45 8 109 140 129 133 84 26 258 25 231 131 57 46 36 27 2 321 249 180 156
8 3 9 48 58 51 37 19 360 341 277 305 287 264 241 181 326 38 161 89 68 54 47 59 21 63 140 115 71 68 28 358 326 341 84 315 229 54 31 42 33 29 59 88 135
359 2 357 98 161 8 8 354 345 343 16 353 281 152 188 213 28 31 167 46 57 40 101 49 347 79 71 62 1 34 342 293 304 306 306 349 307 36 9 35 43 37 46 84 124
349 355 352 203 160 24 344 339 333 333 85 329 127 143 169 170 343 41 127 87 63 46 283 39 40 60 64 35 342 18 16 357 323 291 302 110 268 90 358 18 36 42 60 89 116
342 344 354 217 184 314 330 328 337 278 76 55 83 143 138 32 30 64 102 87 99 81 27 71 16 30 3 72 62 291 278 296 119 257 260 48 322 289 359 355 33 74 85 105 119
339 338 343 190 181 311 325 316 52 78 324 7 5 360 94 29 55 21 51 33 20 346 33 353 30 354 12 7 193 351 330 316 294 293 298 53 253 339 340 355 77 125 95 110 120
348 340 7 185 182 321 337 74 105 39 359 6 356 65 87 3 38 29 83 93 44 45 88 344 202 11 358 12 317 340 322 302 304 303 307 173 240 100 34 93 104 102 108 101 104
5 101 56 150 162 343 352 101 158 116 338 325 306 84 59 52 104 82 47 76 30 2 27 339 283 346 43 357 330 26 340 354 280 227 270 304 172 176 144 124 119 103 99 96 99
8 110 29 152 151 4 68 135 293 245 315 287 65 40 91 18 88 82 53 23 98 25 314 123 288 40 351 159 57 36 85 293 353 298 300 286 291 295 216 197 154 129 116 116 113
11 133 4 139 132 39 81 145 294 303 313 231 208 119 89 76 59 70 69 60 21 64 83 105 328 351 313 38 4 62 49 42 321 284 295 306 303 16 307 238 174 141 131 119 102
27 77 4 156 57 31 78 320 346 333 4 348 94 89 113 74 79 102 130 44 351 318 64 47 90 327 343 303 286 82 75 50 340 308 287 287 286 359 339 158 145 135 128 109 82
6 346 12 153 100 51 333 346 357 10 20 7 68 27 53 97 117 101 93 7 15 60 118 165 60 320 321 167 155 335 66 57 93 247 270 293 305 33 68 94 116 128 121 103 27
11 9 22 55 59 52 21 7 350 19 53 8 26 105 107 82 38 115 86 28 34 84 107 123 137 244 288 311 325 296 303 328 266 277 304 285 315 19 67 103 119 115 110 25 343
23 57 19 10 20 34 35 5 2 5 357 22 75 40 64 104 74 67 47 34 70 54 63 40 242 205 251 255 254 279 312 333 240 331 257 340 339 10 87 123 112 117 3 314 322
48 22 15 14 338 27 11 23 18 358 355 15 73 35 54 85 42 124 100 34 310 1 62 49 251 206 261 202 270 253 33 121 103 50 237 342 60 13 80 105 88 311 299 310 336
41 19 39 353 13 59 34 350 359 318 70 54 33 98 69 47 340 316 282 332 341 319 292 254 188 194 273 311 301 204 79 78 86 42 316 357 40 134 165 302 313 300 315 344 342